Temp
18 19 19 20 20 21 21 22 22 22 22 23 23 23 24 25 26 25 27 27 28 28 27 26 25 26 27 28 29 30 22 22 20 28 33 28 25 32 33 33 33 32 30 28 27
17 18 19 19 19 20 20 21 22 22 22 23 23 23 23 24 26 27 29 28 27 27 27 26 27 27 28 29 30 31 21 21 24 26 31 36 34 35 34 33 32 31 29 27 27
17 17 17 18 19 20 20 20 21 21 22 22 23 23 23 24 25 29 29 28 28 28 27 28 28 29 29 30 31 32 22 23 27 28 30 35 31 35 35 34 32 30 28 27 27
16 17 17 18 19 19 19 20 20 21 21 22 22 23 23 23 27 28 28 28 28 28 27 29 29 30 30 31 32 32 30 26 28 27 36 35 33 36 33 33 31 30 28 27 27
15 16 17 17 18 19 19 19 20 20 21 21 22 22 23 23 26 28 28 28 28 27 26 29 30 30 31 32 29 33 34 27 28 35 35 33 32 36 31 28 30 30 28 28 28
14 15 15 17 17 18 19 19 20 20 20 21 21 21 21 24 27 28 28 28 28 28 27 29 30 31 31 32 33 29 29 30 35 36 36 36 36 36 35 33 31 29 29 28 28
14 14 15 15 17 17 18 19 19 20 20 21 21 20 19 24 28 29 29 29 28 27 28 29 31 31 32 33 33 33 30 34 35 36 36 36 35 36 35 34 31 30 29 29 29
14 14 14 15 16 16 18 18 19 20 20 20 21 20 21 26 27 28 29 30 28 28 28 30 31 32 32 33 25 25 34 33 35 36 37 36 34 36 35 34 32 31 30 29 29
14 14 14 15 15 16 17 18 19 20 20 20 21 20 24 27 27 28 29 30 30 29 29 30 31 32 33 32 32 32 32 32 27 31 37 34 29 34 35 35 33 32 31 30 30
13 14 14 15 15 16 17 18 19 20 20 19 21 21 24 27 29 29 29 30 31 30 30 31 32 32 32 32 30 32 29 27 24 26 26 32 31 34 35 35 34 33 31 30 30
14 14 15 15 15 16 18 19 19 17 18 24 25 25 29 29 30 30 30 30 31 31 31 32 31 31 32 33 29 29 27 24 23 25 25 27 33 34 36 36 34 33 32 31 30
14 14 15 15 16 16 17 17 22 22 23 23 24 26 27 29 31 31 31 31 31 31 32 32 31 32 33 33 29 30 27 25 24 26 25 26 25 36 36 36 35 34 32 31 31
13 15 16 16 16 17 17 17 20 21 23 25 26 26 27 29 30 31 31 31 32 31 32 31 33 34 33 30 28 28 26 25 22 20 23 23 24 33 36 36 36 35 33 32 31
13 15 16 17 16 16 18 20 21 21 23 27 28 28 29 29 30 30 31 32 32 31 32 32 34 33 33 31 28 24 23 22 21 18 20 27 26 35 36 36 36 36 34 33 32
14 15 16 16 17 18 20 20 20 22 23 33 31 31 29 30 30 31 31 32 32 32 32 32 33 33 32 31 30 29 24 22 19 19 19 21 31 35 36 35 36 36 35 34 33
15 15 16 15 16 18 17 18 20 23 24 32 31 31 31 31 31 32 31 32 32 32 33 33 34 35 35 34 29 24 22 21 20 19 20 27 32 34 36 36 36 37 36 35 34
15 16 16 16 17 17 18 19 22 23 31 31 31 31 31 31 31 32 32 31 31 30 30 33 33 35 35 29 29 27 26 27 27 29 27 32 35 38 38 38 37 37 36 35 34
16 16 17 16 15 15 17 21 22 28 29 32 33 32 30 32 31 31 32 31 32 32 32 31 31 34 34 31 27 29 25 24 25 29 32 34 29 37 34 34 34 37 37 36 35
17 15 16 16 17 16 19 21 24 27 31 31 32 31 31 32 32 31 31 32 32 32 32 32 32 35 34 35 31 26 24 21 27 25 26 30 33 33 31 30 33 34 37 37 36
16 15 20 18 15 17 20 20 25 28 30 30 29 31 30 32 32 32 31 33 33 34 34 33 31 34 33 34 28 27 23 23 25 24 25 29 30 22 28 28 30 32 37 37 37
16 19 18 17 17 19 21 23 26 27 28 28 28 29 30 31 33 32 32 33 34 34 34 33 30 30 31 33 25 23 23 25 23 22 22 21 30 29 22 20 26 36 39 38 37
15 22 18 18 20 22 23 25 26 27 28 29 28 28 29 31 31 31 32 33 35 35 33 34 33 29 30 32 34 29 26 25 26 21 20 18 23 27 25 26 23 21 39 39 38
14 21 20 19 21 24 26 27 27 27 27 27 27 29 29 29 28 30 31 34 35 35 33 34 33 31 24 26 28 31 26 28 29 24 24 23 26 25 23 26 23 18 22 31 33
14 23 22 21 21 23 24 25 25 27 27 27 27 28 28 28 29 29 30 33 34 35 31 33 34 32 27 26 27 26 29 31 31 27 26 25 28 22 21 24 23 19 18 19 32
17 21 21 21 23 23 24 24 23 24 27 27 27 27 27 27 28 28 30 31 32 33 32 33 32 33 34 30 28 28 26 24 32 32 30 30 28 21 20 23 22 23 20 21 31
14 15 16 17 20 22 21 23 24 25 25 25 25 26 28 27 28 28 28 30 30 32 32 33 31 33 32 31 26 23 22 20 30 30 32 33 33 26 24 24 23 23 20 18 30
12 12 13 17 20 22 23 23 24 24 24 24 25 25 25 26 26 26 26 27 28 29 30 32 32 31 31 33 27 24 25 27 27 29 30 32 33 26 22 22 23 26 25 18 29
Height
1503 1501 1500 1498 1497 1496 1494 1493 1491 1490 1489 1487 1486 1484 1482 1480 1477 1475 1470 1471 1469 1469 1469 1469 1470 1472 1474 1470 1469 1468 1484 1493 1497 1461 1444 1444 1453 1449 1452 1453 1457 1461 1466 1479 1490
1501 1499 1498 1496 1495 1493 1492 1491 1489 1488 1487 1485 1484 1482 1480 1477 1473 1468 1466 1466 1467 1468 1468 1469 1470 1471 1471 1467 1463 1460 1490 1493 1485 1478 1449 1434 1440 1441 1447 1453 1459 1466 1474 1483 1490
1499 1498 1496 1494 1492 1491 1489 1488 1487 1486 1485 1483 1482 1481 1479 1476 1471 1459 1461 1463 1464 1466 1467 1469 1469 1470 1469 1464 1457 1456 1479 1468 1448 1461 1439 1435 1440 1439 1441 1445 1455 1465 1475 1483 1490
1497 1495 1493 1491 1490 1488 1486 1485 1484 1483 1482 1481 1480 1479 1477 1477 1471 1460 1461 1462 1462 1464 1466 1466 1467 1466 1465 1460 1452 1452 1455 1465 1461 1442 1435 1434 1435 1432 1445 1442 1454 1464 1473 1481 1488
1495 1492 1490 1488 1486 1485 1483 1482 1481 1480 1479 1478 1477 1476 1475 1474 1463 1462 1461 1461 1461 1462 1463 1463 1464 1462 1458 1454 1454 1445 1443 1448 1440 1437 1437 1436 1438 1432 1444 1458 1464 1465 1473 1480 1486
1493 1490 1487 1485 1483 1481 1479 1478 1477 1476 1476 1475 1474 1473 1473 1469 1458 1459 1458 1458 1459 1459 1461 1460 1459 1458 1455 1449 1445 1449 1446 1449 1435 1429 1432 1434 1432 1436 1441 1453 1463 1466 1472 1479 1484
1491 1488 1485 1482 1479 1477 1476 1474 1473 1472 1472 1471 1471 1470 1468 1455 1453 1458 1455 1455 1456 1457 1458 1457 1456 1453 1450 1448 1444 1442 1446 1436 1432 1428 1425 1433 1434 1434 1438 1446 1456 1465 1471 1477 1483
1489 1485 1482 1479 1475 1473 1470 1469 1468 1468 1468 1468 1467 1467 1457 1450 1452 1451 1451 1452 1453 1456 1457 1456 1455 1451 1447 1446 1454 1460 1440 1446 1425 1423 1423 1429 1443 1428 1436 1444 1453 1463 1469 1475 1480
1487 1483 1479 1476 1472 1469 1466 1464 1463 1463 1464 1464 1464 1463 1450 1443 1443 1445 1449 1449 1449 1452 1454 1452 1450 1446 1446 1449 1449 1443 1453 1442 1445 1429 1420 1428 1448 1435 1433 1441 1450 1459 1465 1472 1477
1486 1482 1477 1473 1469 1465 1462 1460 1459 1459 1459 1460 1461 1465 1442 1434 1437 1439 1442 1445 1443 1446 1448 1448 1446 1445 1443 1443 1462 1446 1455 1459 1458 1436 1459 1441 1440 1432 1432 1437 1446 1454 1461 1468 1473
1484 1479 1475 1471 1466 1462 1459 1458 1459 1455 1455 1445 1441 1437 1425 1429 1431 1433 1437 1440 1439 1440 1441 1440 1446 1447 1438 1431 1443 1441 1461 1480 1474 1455 1484 1458 1434 1430 1430 1432 1440 1448 1456 1463 1468
1481 1476 1471 1467 1463 1460 1457 1456 1452 1452 1444 1438 1435 1433 1429 1427 1427 1426 1431 1435 1434 1434 1434 1438 1441 1432 1429 1429 1442 1443 1464 1478 1479 1461 1473 1461 1462 1422 1424 1427 1433 1441 1450 1458 1464
1478 1473 1468 1464 1459 1456 1454 1452 1452 1452 1443 1427 1423 1423 1424 1427 1421 1420 1425 1427 1427 1429 1427 1431 1425 1423 1424 1437 1448 1454 1466 1474 1494 1476 1465 1475 1472 1431 1419 1423 1428 1435 1444 1452 1458
1474 1469 1463 1461 1459 1455 1454 1454 1452 1452 1442 1409 1400 1405 1415 1420 1416 1418 1418 1423 1423 1425 1425 1422 1418 1417 1422 1429 1438 1467 1474 1476 1492 1506 1508 1453 1473 1421 1413 1419 1422 1429 1437 1445 1451
1471 1464 1459 1454 1455 1455 1456 1453 1452 1452 1452 1369 1384 1392 1401 1407 1411 1410 1413 1416 1416 1418 1420 1421 1416 1414 1424 1431 1426 1440 1451 1477 1498 1508 1509 1485 1444 1409 1402 1418 1418 1423 1430 1437 1445
1466 1460 1454 1450 1449 1450 1451 1453 1453 1451 1436 1381 1382 1390 1395 1398 1404 1402 1408 1410 1414 1415 1411 1409 1405 1403 1405 1412 1422 1463 1466 1479 1483 1495 1508 1452 1425 1416 1401 1406 1410 1416 1423 1430 1439
1462 1456 1451 1449 1453 1451 1452 1454 1449 1441 1387 1381 1382 1385 1391 1392 1397 1399 1401 1404 1410 1424 1418 1405 1401 1398 1399 1421 1430 1446 1445 1465 1472 1466 1465 1414 1408 1388 1378 1387 1399 1409 1416 1424 1432
1458 1452 1449 1447 1448 1450 1452 1451 1449 1402 1397 1372 1369 1373 1388 1384 1391 1394 1394 1402 1397 1401 1409 1416 1418 1395 1398 1407 1439 1434 1451 1473 1486 1458 1435 1404 1441 1388 1389 1392 1400 1403 1409 1419 1426
1454 1451 1449 1447 1447 1450 1452 1445 1425 1404 1385 1381 1374 1381 1378 1377 1379 1389 1391 1389 1390 1393 1404 1404 1401 1378 1389 1392 1407 1439 1454 1467 1452 1462 1468 1434 1406 1389 1398 1388 1393 1403 1403 1410 1418
1451 1449 1449 1448 1446 1451 1447 1438 1416 1403 1394 1390 1396 1380 1385 1374 1376 1377 1385 1377 1382 1383 1385 1386 1403 1381 1393 1393 1412 1423 1443 1471 1460 1484 1483 1439 1426 1450 1426 1402 1394 1395 1393 1398 1407
1451 1447 1445 1446 1448 1448 1438 1426 1415 1405 1402 1401 1400 1392 1384 1373 1364 1369 1372 1372 1369 1375 1379 1382 1399 1397 1396 1387 1420 1440 1446 1448 1464 1475 1488 1496 1433 1419 1447 1440 1442 1392 1381 1390 1396
1453 1442 1444 1445 1446 1435 1428 1419 1414 1405 1400 1398 1398 1397 1390 1374 1372 1369 1367 1363 1363 1367 1374 1374 1384 1414 1403 1392 1381 1399 1422 1427 1449 1482 1480 1496 1449 1422 1436 1437 1425 1427 1378 1384 1390
1456 1442 1441 1443 1437 1423 1411 1407 1405 1402 1403 1402 1399 1394 1387 1386 1390 1378 1368 1356 1354 1359 1365 1366 1379 1399 1436 1413 1404 1398 1410 1410 1412 1439 1457 1467 1440 1414 1426 1425 1431 1428 1394 1397 1395
1461 1438 1437 1440 1433 1428 1418 1412 1409 1403 1399 1400 1399 1394 1391 1391 1385 1386 1377 1362 1357 1354 1358 1359 1363 1374 1403 1412 1410 1415 1401 1393 1396 1426 1432 1437 1416 1419 1416 1433 1427 1421 1414 1420 1400
1461 1447 1446 1438 1429 1428 1420 1419 1417 1411 1397 1395 1397 1397 1395 1397 1391 1390 1381 1370 1362 1358 1358 1358 1367 1361 1356 1372 1396 1402 1414 1418 1387 1388 1406 1404 1413 1420 1428 1439 1443 1448 1440 1424 1406
1472 1469 1459 1450 1439 1430 1423 1417 1413 1408 1403 1401 1399 1395 1390 1395 1391 1391 1384 1375 1372 1362 1359 1357 1367 1360 1365 1369 1391 1411 1424 1433 1394 1394 1383 1387 1392 1402 1412 1416 1421 1435 1438 1442 1416
1476 1473 1468 1451 1438 1426 1417 1414 1408 1409 1408 1408 1404 1403 1396 1391 1393 1391 1391 1387 1380 1374 1363 1356 1360 1367 1376 1357 1387 1417 1418 1402 1399 1391 1389 1389 1384 1398 1409 1405 1407 1418 1435 1427 1418
Wind_Speed
14 15 16 16 16 16 17 17 17 17 18 18 17 18 18 19 18 20 22 14 15 16 13 9 13 14 10 14 14 13 4 6 9 17 9 44 25 9 9 15 16 4 27 32 34
15 16 16 17 17 17 17 18 18 18 19 19 18 18 19 20 23 25 19 16 14 16 15 15 15 13 12 13 9 3 4 4 13 14 20 17 10 18 16 16 16 23 29 34 34
17 17 18 18 18 18 18 18 19 18 19 19 18 18 18 19 22 21 14 19 21 19 17 15 13 13 14 15 17 11 6 8 32 25 38 9 16 10 15 16 24 28 32 34 34
18 18 19 19 20 20 19 19 19 19 19 19 19 18 16 13 7 5 2 9 15 18 18 19 17 17 14 14 19 14 18 26 14 44 8 2 17 11 29 4 30 31 32 34 33
17 18 20 20 20 20 21 20 20 20 19 18 18 18 15 11 26 17 11 9 7 17 22 24 20 18 17 18 13 18 16 27 46 17 7 16 21 7 25 17 26 29 31 33 31
18 18 19 21 21 21 21 21 20 20 19 18 17 16 14 19 20 13 12 15 16 20 24 26 19 21 19 21 18 7 21 32 18 12 10 10 7 8 27 34 28 27 30 30 29
18 19 19 20 20 21 22 21 20 20 18 17 17 16 15 31 13 11 16 16 17 22 26 27 25 23 22 20 19 29 18 17 18 20 13 14 12 13 20 22 26 24 26 28 28
21 20 21 21 20 20 21 21 20 19 17 16 15 13 16 22 19 20 14 19 18 21 25 23 23 27 29 16 10 23 16 15 17 19 13 17 10 9 18 18 24 24 25 27 28
22 22 22 22 21 21 21 19 19 18 16 14 12 12 21 12 22 25 27 22 23 21 23 27 29 26 22 17 17 21 15 12 12 16 14 7 5 10 18 19 24 25 26 27 28
24 25 24 24 22 21 20 16 15 16 15 12 12 9 24 23 22 23 22 25 23 24 26 31 18 15 16 17 14 18 10 13 8 12 26 2 9 12 16 23 23 26 26 27 29
26 26 27 26 22 22 18 10 6 6 18 19 16 24 28 15 15 22 26 25 25 25 21 25 16 19 23 17 10 14 15 8 1 28 15 13 18 23 19 24 25 26 26 28 29
27 27 28 25 22 19 17 8 10 11 12 26 31 32 28 22 19 19 26 30 27 22 23 20 22 23 23 7 2 2 5 9 8 23 11 20 27 21 18 20 25 27 28 28 29
30 29 29 26 20 11 11 14 16 12 11 25 32 35 35 27 21 21 27 33 22 23 23 24 25 23 25 12 4 3 2 5 7 21 24 26 28 22 20 21 24 27 28 29 31
32 31 30 27 10 7 9 6 7 6 7 14 31 38 33 34 27 26 28 33 23 27 25 24 25 23 17 19 17 10 6 11 14 2 12 24 13 22 22 19 20 23 29 30 31
32 32 30 22 10 7 7 5 5 4 6 0 24 12 39 36 33 28 29 31 28 26 18 25 27 26 17 29 18 9 20 14 5 13 21 36 16 19 24 20 21 21 28 31 32
31 31 27 10 5 6 8 7 5 6 13 4 12 10 20 31 32 26 32 30 31 26 28 25 31 26 24 13 9 21 17 12 21 22 12 32 23 17 21 20 22 22 29 31 32
30 28 16 7 6 1 4 6 6 9 10 6 16 14 18 22 26 29 27 25 23 23 25 28 27 23 18 6 16 21 13 6 7 11 15 24 20 7 30 26 23 22 30 30 33
27 20 7 5 7 6 4 8 10 13 20 21 3 19 16 19 23 27 25 24 26 28 19 23 22 26 22 20 21 12 10 6 9 10 15 21 12 12 7 9 3 26 31 32 33
23 7 8 8 5 6 10 10 9 15 14 15 11 13 15 20 18 24 29 26 26 26 26 23 28 23 27 18 19 4 3 5 3 5 6 9 12 5 4 2 7 18 29 34 36
23 6 10 4 4 6 8 17 20 23 22 12 16 15 11 15 20 23 25 28 25 28 29 26 17 14 23 18 12 9 14 9 4 3 6 11 17 12 4 5 12 21 29 38 39
12 8 3 4 8 9 9 14 18 25 21 6 15 20 22 22 17 21 20 26 24 26 27 27 8 20 10 17 25 12 8 5 5 3 3 6 6 15 12 19 24 13 23 39 40
8 5 6 7 9 10 11 16 20 20 21 12 10 18 21 17 11 12 16 20 26 25 28 28 24 16 22 24 20 23 17 16 8 8 4 4 13 9 11 8 26 42 26 24 24
12 16 7 9 7 9 13 17 14 17 12 16 18 16 19 16 10 13 18 18 19 23 27 23 21 13 11 10 22 8 21 21 19 8 12 8 8 6 14 20 27 33 44 20 11
10 6 7 11 16 14 15 14 14 17 16 12 16 20 18 18 14 15 17 13 17 13 8 22 23 19 13 17 14 4 20 22 20 9 9 14 11 4 14 15 16 37 52 67 17
8 10 16 8 15 18 18 14 17 18 21 9 12 17 17 16 17 17 18 21 21 15 14 15 24 25 26 28 18 13 13 31 23 19 15 16 18 15 11 17 17 10 36 55 11
11 10 18 24 24 19 15 16 17 16 17 15 10 15 15 17 18 18 12 17 15 15 17 18 17 19 24 24 18 9 5 33 16 22 18 21 13 15 25 24 26 17 17 42 11
15 13 12 14 16 15 12 17 14 16 13 14 14 16 20 10 17 19 20 21 22 18 15 19 16 17 19 22 18 9 23 8 14 27 24 19 19 19 11 18 24 14 2 46 17
Wind_Direction
305 301 298 298 298 298 301 302 305 307 307 310 313 314 313 310 302 293 274 256 269 259 259 233 217 230 256 267 271 272 39 40 328 329 40 127 171 159 104 123 114 44 138 146 151
307 301 298 297 297 296 295 294 296 300 301 304 307 309 311 313 305 287 266 238 255 251 230 206 216 224 248 272 259 199 105 229 226 269 280 101 17 125 136 123 116 101 124 144 152
307 306 304 298 294 293 294 295 294 295 296 299 302 304 309 316 312 275 255 235 242 242 217 216 221 229 249 260 265 238 145 295 297 274 235 97 134 176 151 160 140 135 141 152 157
306 303 300 299 296 295 293 292 292 293 293 295 297 298 302 305 279 66 284 225 235 226 211 215 226 228 237 253 249 250 180 177 231 279 309 128 337 138 104 326 136 144 151 157 162
316 306 300 298 295 293 293 292 290 290 291 292 293 298 300 265 251 270 250 239 234 213 212 217 223 235 243 257 335 267 276 165 247 211 212 127 209 87 106 117 134 144 154 163 167
328 322 311 300 295 290 288 288 288 287 288 288 288 290 292 263 258 224 253 249 245 217 216 221 226 235 247 261 258 36 337 280 285 268 174 264 231 160 136 138 138 146 159 167 171
331 326 320 313 300 295 289 284 284 283 285 285 284 284 265 244 254 241 226 250 232 217 218 223 230 238 237 250 285 301 214 275 261 261 197 195 221 176 148 142 140 156 166 171 175
337 331 325 320 313 301 290 284 279 278 280 281 279 276 258 261 254 242 242 230 223 222 222 225 232 242 262 283 44 300 257 264 251 213 217 190 215 223 145 167 151 167 172 176 180
341 337 331 326 317 308 297 286 277 274 274 274 270 236 263 264 230 228 227 237 217 220 224 231 234 243 257 255 243 238 253 263 346 310 197 143 243 264 158 181 160 175 175 179 182
343 339 335 330 320 310 304 293 277 270 266 263 228 248 252 240 229 221 219 220 222 213 214 229 239 244 243 253 251 253 7 43 356 297 350 313 200 226 184 176 174 180 176 181 184
341 338 335 334 322 313 309 311 280 245 212 214 208 208 277 222 214 214 210 211 220 214 217 213 225 231 236 245 55 51 27 102 206 271 299 260 206 209 194 181 176 181 178 183 185
336 332 330 334 321 309 298 258 275 316 287 240 245 239 252 269 219 227 200 204 217 215 215 223 219 235 241 234 175 182 357 75 314 261 275 311 300 178 186 189 176 182 179 183 183
335 331 327 332 323 315 309 261 276 303 278 267 241 235 233 236 239 216 207 203 214 214 221 223 230 217 243 157 103 301 188 9 52 319 300 295 275 235 182 192 172 183 178 184 185
332 329 325 328 316 292 283 298 276 272 278 256 216 233 225 222 232 226 212 209 216 221 228 235 233 250 233 183 148 155 140 60 48 319 255 311 217 201 172 192 170 180 176 185 185
331 326 324 321 275 251 309 322 287 243 275 47 198 206 204 207 218 220 230 203 221 218 224 232 240 236 194 256 169 209 142 123 276 266 254 274 241 202 170 185 178 182 178 185 186
330 324 327 321 329 288 238 302 273 234 243 179 126 174 192 205 214 231 209 223 221 228 229 235 239 240 241 189 148 136 143 234 188 205 231 251 267 219 177 178 182 186 177 181 183
331 323 322 283 186 2 261 240 222 239 241 221 168 202 209 205 208 220 198 216 210 219 230 236 234 240 256 88 345 166 209 205 185 228 240 252 241 243 184 172 183 187 177 180 178
333 327 332 331 223 287 193 220 245 255 238 291 223 181 195 213 204 212 224 211 212 221 221 230 229 204 241 165 192 225 163 300 213 232 236 238 303 207 181 142 238 194 189 181 180
337 329 337 331 237 199 222 222 241 255 343 345 301 262 199 205 212 204 226 210 217 218 228 227 235 223 200 249 135 155 99 304 99 42 285 254 268 86 255 12 309 257 204 182 186
337 297 233 228 197 187 229 249 264 273 302 308 301 294 237 240 217 193 212 230 208 217 229 239 242 226 207 205 105 142 135 214 75 211 244 254 281 154 278 49 292 272 210 187 188
330 266 165 177 176 219 237 247 256 265 266 304 280 288 299 277 261 221 211 224 217 217 218 236 186 275 276 228 133 131 154 92 100 140 158 324 255 71 41 343 308 259 232 186 188
311 281 168 163 211 229 249 253 261 283 298 297 270 279 286 312 302 301 239 218 216 219 225 220 242 200 271 271 195 167 170 160 202 181 161 154 276 1 4 316 6 343 211 181 183
307 291 197 186 259 263 276 244 243 273 284 278 274 258 284 298 304 291 290 285 249 218 221 226 226 224 186 312 295 206 168 185 182 143 181 188 240 351 335 349 338 328 352 359 75
298 311 159 218 257 270 277 297 303 292 267 260 268 279 261 263 268 280 292 284 293 275 259 236 232 230 199 193 241 262 276 224 206 185 180 219 254 338 321 316 343 346 338 318 121
290 327 342 299 316 331 325 314 297 294 300 228 276 244 267 259 263 261 269 280 291 298 291 273 238 245 253 190 184 202 265 292 223 217 216 209 211 165 173 233 249 293 297 308 146
355 339 326 298 289 279 270 264 261 269 275 314 266 307 258 239 252 259 305 284 288 277 257 255 255 250 251 173 177 130 206 258 292 298 216 249 241 160 173 186 240 235 280 307 153
348 332 308 296 293 286 307 339 316 328 315 297 305 303 289 9 348 327 316 296 295 304 299 244 241 244 252 257 148 155 216 252 278 280 283 233 248 158 192 180 198 227 317 277 185